Weather History for Provo, UT

Change the Weather History Date:

Monday, February 4, 2013

  Actual Average Record
Temperature  
Mean Temperature 32 °F -  
Max Temperature 57 °F 37 °F 57 °F (2013)
Min Temperature 6 °F 22 °F 5 °F (1984)
Degree Days  
Heating Degree Days 34    
Moisture  
Dew Point 11 °F    
Average Humidity 86    
Maximum Humidity 100    
Minimum Humidity 12    
Precipitation  
Precipitation 0.00 in - - ()
Sea Level Pressure  
Sea Level Pressure 30.24 in    
Wind  
Wind Speed 0 mph (NW)    
Max Wind Speed 5 mph    
Max Gust Speed -    
Visibility 1 miles    
Events Fog    
Averages and records for this station are not official NWS values.
T = Trace of Precipitation, MM = Missing Value Source: NWS Daily Summary

Daily Weather History Graph

Daily Weather History Graph

Search for Another Location

Airport:

Trip Planner

Search our weather history database for the weather conditions in past years. The results will help you decide how hot, cold, wet, or windy it might be!

Date:

Astronomy

Feb. 04, 2013 Rise Set
Actual Time 7:32 AM MST 5:49 PM MST
Civil Twilight 7:04 AM MST 6:18 PM MST
Nautical Twilight 6:31 AM MST 6:50 PM MST
Astronomical Twilight 5:59 AM MST 7:22 PM MST
Moon 2:12 AM MST (2/4) 12:16 PM MST (2/4)
Length of Visible Light 11h 14m
Length of Day
10h 17m
Last Quarter, 36% of the Moon is Illuminated
Feb 4
Last Quarter
Feb 10
New
Feb 17
First Quarter
Feb 25
Full
Mar 4
Last Quarter

Hourly Weather History & Observations

Time (MST) Temp. Windchill Dew Point Humidity Pressure Visibility Wind Dir Wind Speed Gust Speed Precip Events Conditions
12:15 AM 10.4 °F - 8.6 °F 92% 30.25 in 0.2 mi Calm Calm - N/A   Unknown
12:35 AM 10.4 °F - 8.6 °F 92% 30.24 in 0.2 mi Calm Calm - N/A   Unknown
12:55 AM 10.4 °F - 8.6 °F 92% 30.24 in 0.2 mi Calm Calm - N/A   Unknown
1:15 AM 10.4 °F - 10.4 °F 100% 30.24 in 0.2 mi Calm Calm - N/A   Unknown
1:35 AM 10.4 °F 4.0 °F 6.8 °F 85% 30.24 in 0.2 mi NW 3.5 mph - N/A   Unknown
1:55 AM 12.2 °F 4.3 °F 10.4 °F 92% 30.24 in 0.2 mi WNW 4.6 mph - N/A   Unknown
2:15 AM 12.2 °F - 8.6 °F 85% 30.24 in 0.2 mi Calm Calm - N/A   Unknown
3:55 AM 12.2 °F - 10.4 °F 92% 30.25 in 0.2 mi Calm Calm - N/A   Unknown
4:15 AM 12.2 °F - 10.4 °F 92% 30.26 in 0.2 mi Calm Calm - N/A   Unknown
4:35 AM 12.2 °F - 10.4 °F 92% 30.25 in 0.2 mi Calm Calm - N/A   Unknown
4:55 AM 10.4 °F - 10.4 °F 100% 30.25 in 0.2 mi Calm Calm - N/A   Unknown
5:15 AM 10.4 °F - 10.4 °F 100% 30.26 in 0.2 mi Calm Calm - N/A   Unknown
5:35 AM 10.4 °F - 8.6 °F 92% 30.26 in 0.2 mi Calm Calm - N/A   Unknown
5:55 AM 10.4 °F - 6.8 °F 85% 30.26 in 0.2 mi Calm Calm - N/A   Unknown
6:15 AM 10.4 °F - 8.6 °F 92% 30.26 in 0.2 mi Calm Calm - N/A   Unknown
6:35 AM 10.4 °F - 6.8 °F 85% 30.26 in 0.2 mi Calm Calm - N/A   Unknown
6:50 AM 10.4 °F - 6.8 °F 85% 30.26 in 0.1 mi Calm Calm - N/A Fog Light Freezing Fog
8:50 AM 57.2 °F - 5.0 °F 12% 30.28 in 2.0 mi Calm Calm - N/A   Mostly Cloudy
9:50 AM 50.0 °F - 10.4 °F 20% 30.28 in 2.5 mi Calm Calm - N/A   Haze
10:55 AM 15.8 °F - 14.0 °F 93% 30.28 in 2.5 mi Calm Calm - N/A   Haze
11:50 AM 17.6 °F - 15.8 °F 93% 30.26 in 2.5 mi Calm Calm - N/A   Haze
2:22 PM 24.8 °F - 21.2 °F 86% 30.22 in 3.0 mi Calm Calm - N/A   Haze
2:50 PM 26.6 °F - 23.0 °F 86% 30.22 in 3.0 mi Calm Calm - N/A   Haze
3:48 PM 26.6 °F - 21.2 °F 80% 30.21 in 3.0 mi Calm Calm - N/A   Haze
4:50 PM 26.6 °F - 19.4 °F 74% 30.22 in 3.0 mi Calm Calm - N/A   Haze
6:47 PM 17.6 °F - 12.2 °F 79% 30.19 in 2.0 mi Calm Calm - N/A   Haze
7:50 PM 17.6 °F - 15.8 °F 93% 30.20 in 3.0 mi Calm Calm - N/A   Haze
8:57 PM 17.6 °F - 17.6 °F 100% 30.21 in 3.0 mi Calm Calm - N/A   Haze
9:15 PM 17.6 °F - 17.6 °F 100% 30.21 in 2.5 mi Calm Calm - N/A   Clear
9:35 PM 15.8 °F - 12.2 °F 86% 30.21 in 2.0 mi Calm Calm - N/A   Clear
9:55 PM 12.2 °F - 10.4 °F 92% 30.22 in 2.0 mi Calm Calm - N/A   Clear
10:15 PM 14.0 °F - 12.2 °F 93% 30.21 in 2.5 mi Calm Calm - N/A   Clear
10:35 PM 12.2 °F 6.1 °F 8.6 °F 85% 30.22 in 2.5 mi NNW 3.5 mph - N/A   Clear
10:55 PM 6.8 °F - -0.4 °F 72% 30.21 in 0.2 mi Calm Calm - N/A   Unknown
11:15 PM 6.8 °F -2.0 °F 6.8 °F 100% 30.21 in 0.5 mi SW 4.6 mph - N/A   Unknown
11:35 PM 8.6 °F - 6.8 °F 92% 30.21 in 0.8 mi Calm Calm - N/A   Unknown
11:55 PM 8.6 °F 2.0 °F 8.6 °F 100% 30.21 in 1.0 mi East 3.5 mph - N/A   Clear